| time (UTC) | temp F | wind direction | speed MPH | gust MPH | rain 1hr in | rain 24hr in | rain mn in | humidity % | barometer mb |
| 20260510225004 | 38 | 178 | 0.0 | 0.0 | 0.00 | 0.00 | 0.00 | 84 | 1005.5 |
| 20260510221005 | 38 | 168 | 0.0 | 0.0 | 0.00 | 0.00 | 0.00 | 84 | 1005.7 |
| 20260510220005 | 38 | 168 | 0.0 | 0.0 | 0.00 | 0.00 | 0.00 | 84 | 1005.8 |
| 20260510215005 | 38 | 168 | 0.0 | 0.0 | 0.00 | 0.00 | 0.00 | 84 | 1005.9 |
| 20260510214005 | 38 | 168 | 0.0 | 0.0 | 0.00 | 0.00 | 0.00 | 84 | 1005.9 |
| 20260510213005 | 39 | 165 | 0.0 | 0.0 | 0.00 | 0.00 | 0.00 | 84 | 1006.0 |
| 20260510212005 | 39 | 165 | 0.0 | 0.0 | 0.00 | 0.00 | 0.00 | 83 | 1006.0 |
| 20260510211004 | 39 | 165 | 0.0 | 0.0 | 0.00 | 0.00 | 0.00 | 83 | 1006.1 |
| 20260510210005 | 40 | 165 | 0.0 | 0.0 | 0.00 | 0.00 | 0.00 | 82 | 1006.0 |
| 20260510205004 | 40 | 165 | 0.0 | 0.0 | 0.00 | 0.00 | 0.00 | 82 | 1006.0 |
| 20260510204005 | 40 | 165 | 0.0 | 0.0 | 0.00 | 0.00 | 0.00 | 81 | 1005.9 |
| 20260510203005 | 41 | 165 | 0.0 | 0.0 | 0.00 | 0.00 | 0.00 | 80 | 1005.9 |
| 20260510202004 | 41 | 165 | 0.0 | 0.0 | 0.00 | 0.00 | 0.00 | 79 | 1005.9 |
| 20260510201005 | 41 | 165 | 0.0 | 0.0 | 0.00 | 0.00 | 0.00 | 78 | 1006.0 |
| 20260510200005 | 41 | 165 | 0.0 | 0.0 | 0.00 | 0.01 | 0.00 | 80 | 1005.9 |
| 20260510194005 | 42 | 165 | 0.0 | 0.0 | 0.00 | 0.01 | 0.00 | 79 | 1005.8 |
| 20260510192005 | 42 | 165 | 0.0 | 0.0 | 0.00 | 0.01 | 0.00 | 78 | 1005.8 |
| 20260510191004 | 42 | 165 | 0.0 | 0.0 | 0.00 | 0.01 | 0.00 | 78 | 1005.7 |
| 20260510190005 | 43 | 165 | 0.0 | 0.0 | 0.00 | 0.01 | 0.00 | 78 | 1005.7 |
| 20260510185005 | 43 | 165 | 0.0 | 0.0 | 0.00 | 0.01 | 0.00 | 77 | 1005.7 |
| 20260510184005 | 44 | 165 | 0.0 | 0.0 | 0.00 | 0.02 | 0.00 | 76 | 1005.7 |
| 20260510183004 | 45 | 165 | 0.0 | 0.0 | 0.00 | 0.02 | 0.00 | 74 | 1005.7 |
| 20260510182005 | 46 | 165 | 0.0 | 0.0 | 0.00 | 0.03 | 0.00 | 75 | 1005.7 |
| 20260510181006 | 46 | 165 | 0.0 | 0.0 | 0.00 | 0.04 | 0.00 | 76 | 1005.7 |
| 20260510180005 | 46 | 165 | 0.0 | 0.0 | 0.00 | 0.04 | 0.00 | 76 | 1005.8 |
| 20260510175005 | 46 | 165 | 0.0 | 0.0 | 0.00 | 0.06 | 0.00 | 75 | 1006.0 |
| 20260510174006 | 46 | 165 | 0.0 | 0.0 | 0.00 | 0.08 | 0.00 | 76 | 1006.0 |
| 20260510173005 | 46 | 165 | 0.0 | 0.0 | 0.00 | 0.09 | 0.00 | 75 | 1006.1 |
| 20260510172006 | 46 | 165 | 0.0 | 0.0 | 0.00 | 0.10 | 0.00 | 73 | 1006.2 |
| 20260510171005 | 46 | 165 | 0.0 | 0.0 | 0.00 | 0.10 | 0.00 | 72 | 1006.2 |
| 20260510170005 | 46 | 165 | 0.0 | 0.0 | 0.00 | 0.11 | 0.00 | 70 | 1006.3 |
| 20260510164006 | 48 | 116 | 0.0 | 0.0 | 0.00 | 0.11 | 0.00 | 66 | 1006.5 |
| 20260510163006 | 48 | 134 | 0.0 | 0.0 | 0.00 | 0.11 | 0.00 | 65 | 1006.6 |
| 20260510161006 | 48 | 271 | 0.0 | 0.0 | 0.00 | 0.11 | 0.00 | 66 | 1006.7 |
| 20260510160006 | 47 | 179 | 0.0 | 0.0 | 0.00 | 0.11 | 0.00 | 71 | 1006.9 |
| 20260510155006 | 47 | 222 | 0.0 | 0.0 | 0.00 | 0.11 | 0.00 | 72 | 1007.1 |
| 20260510154006 | 47 | 206 | 0.0 | 0.0 | 0.00 | 0.11 | 0.00 | 73 | 1007.2 |
| 20260510153005 | 47 | 205 | 0.0 | 0.0 | 0.00 | 0.11 | 0.00 | 73 | 1007.2 |
| 20260510152005 | 47 | 195 | 0.0 | 0.0 | 0.00 | 0.11 | 0.00 | 75 | 1007.3 |
| 20260510151005 | 47 | 202 | 0.0 | 0.0 | 0.00 | 0.11 | 0.00 | 75 | 1007.4 |
| 20260510150005 | 47 | 203 | 0.0 | 0.0 | 0.00 | 0.11 | 0.00 | 76 | 1007.5 |
| 20260510143006 | 47 | 216 | 0.0 | 0.0 | 0.00 | 0.11 | 0.00 | 77 | 1007.6 |
| 20260510142006 | 47 | 232 | 0.0 | 0.0 | 0.00 | 0.11 | 0.00 | 74 | 1007.7 |
| 20260510141006 | 47 | 190 | 0.0 | 0.0 | 0.00 | 0.11 | 0.00 | 75 | 1007.8 |
| 20260510140006 | 47 | 187 | 0.0 | 0.0 | 0.00 | 0.11 | 0.00 | 74 | 1007.8 |
| 20260510133006 | 46 | 192 | 0.0 | 0.0 | 0.00 | 0.11 | 0.00 | 77 | 1007.8 |
| 20260510132006 | 46 | 213 | 0.0 | 0.0 | 0.00 | 0.11 | 0.00 | 78 | 1007.9 |
| 20260510131005 | 46 | 213 | 0.0 | 0.0 | 0.00 | 0.11 | 0.00 | 77 | 1008.0 |
| 20260510130008 | 47 | 214 | 0.0 | 0.0 | 0.00 | 0.11 | 0.00 | 76 | 1008.0 |
| 20260510125005 | 48 | 216 | 0.0 | 0.0 | 0.00 | 0.11 | 0.00 | 74 | 1008.1 |
| 20260510124006 | 49 | 213 | 0.0 | 0.0 | 0.00 | 0.11 | 0.00 | 72 | 1007.9 |
| 20260510121005 | 48 | 240 | 0.0 | 0.0 | 0.00 | 0.11 | 0.00 | 77 | 1007.6 |
| 20260510120005 | 47 | 216 | 0.0 | 0.0 | 0.00 | 0.11 | 0.00 | 76 | 1007.7 |
| 20260510115005 | 46 | 208 | 0.0 | 0.0 | 0.00 | 0.11 | 0.00 | 77 | 1007.8 |
| 20260510114006 | 46 | 207 | 0.0 | 0.0 | 0.00 | 0.11 | 0.00 | 76 | 1007.7 |
| 20260510112005 | 48 | 218 | 0.0 | 0.0 | 0.00 | 0.11 | 0.00 | 74 | 1007.7 |
| 20260510111006 | 48 | 242 | 0.0 | 0.0 | 0.00 | 0.11 | 0.00 | 70 | 1007.7 |
| 20260510110005 | 49 | 217 | 0.0 | 0.0 | 0.00 | 0.11 | 0.00 | 69 | 1007.9 |
| 20260510105005 | 48 | 210 | 0.0 | 0.0 | 0.00 | 0.11 | 0.00 | 73 | 1007.7 |
| 20260510103005 | 48 | 214 | 0.0 | 0.0 | 0.00 | 0.11 | 0.00 | 74 | 1008.0 |
| 20260510102005 | 49 | 222 | 0.0 | 0.0 | 0.00 | 0.11 | 0.00 | 70 | 1008.0 |
| 20260510101005 | 50 | 229 | 0.0 | 0.0 | 0.00 | 0.11 | 0.00 | 68 | 1007.7 |
| 20260510100006 | 50 | 183 | 0.0 | 0.0 | 0.00 | 0.11 | 0.00 | 71 | 1007.8 |
| 20260510095006 | 48 | 200 | 0.0 | 0.0 | 0.00 | 0.11 | 0.00 | 76 | 1007.8 |
| 20260510093006 | 46 | 149 | 0.0 | 0.0 | 0.00 | 0.11 | 0.00 | 80 | 1008.1 |
| 20260510092005 | 45 | 227 | 0.0 | 0.0 | 0.00 | 0.11 | 0.00 | 80 | 1008.4 |
| 20260510091005 | 46 | 213 | 0.0 | 0.0 | 0.00 | 0.11 | 0.00 | 77 | 1008.4 |
| 20260510090006 | 46 | 215 | 0.0 | 0.0 | 0.00 | 0.11 | 0.00 | 75 | 1008.2 |
| 20260510085005 | 47 | 211 | 0.0 | 0.0 | 0.00 | 0.11 | 0.00 | 75 | 1008.2 |
| 20260510084006 | 47 | 214 | 0.0 | 0.0 | 0.00 | 0.11 | 0.00 | 77 | 1008.2 |
| 20260510083005 | 47 | 219 | 0.0 | 0.0 | 0.00 | 0.11 | 0.00 | 74 | 1008.3 |
| 20260510082005 | 47 | 208 | 0.0 | 0.0 | 0.00 | 0.11 | 0.00 | 74 | 1008.2 |
| 20260510081005 | 48 | 218 | 0.0 | 0.0 | 0.00 | 0.11 | 0.00 | 77 | 1008.3 |
| 20260510075006 | 47 | 219 | 0.0 | 0.0 | 0.00 | 0.11 | 0.00 | 78 | 1008.4 |
| 20260510074006 | 47 | 242 | 0.0 | 0.0 | 0.00 | 0.11 | 0.00 | 78 | 1008.4 |
| 20260510072005 | 46 | 212 | 0.0 | 0.0 | 0.00 | 0.11 | 0.00 | 81 | 1008.8 |
| 20260510071005 | 46 | 221 | 0.0 | 0.0 | 0.00 | 0.11 | 0.00 | 81 | 1008.8 |
| 20260510070006 | 45 | 223 | 0.0 | 0.0 | 0.00 | 0.11 | 0.00 | 82 | 1008.9 |
| 20260510065005 | 45 | 223 | 0.0 | 0.0 | 0.00 | 0.11 | 0.00 | 81 | 1008.9 |
| 20260510064005 | 45 | 222 | 0.0 | 0.0 | 0.00 | 0.11 | 0.00 | 83 | 1008.8 |
| 20260510063006 | 45 | 213 | 0.0 | 0.0 | 0.00 | 0.11 | 0.00 | 83 | 1009.0 |
| 20260510062005 | 44 | 199 | 0.0 | 0.0 | 0.00 | 0.11 | 0.00 | 82 | 1009.0 |
| 20260510061005 | 44 | 258 | 0.0 | 0.0 | 0.00 | 0.11 | 0.00 | 84 | 1008.9 |
| 20260510060006 | 44 | 203 | 0.0 | 0.0 | 0.00 | 0.11 | 0.00 | 85 | 1008.8 |
| 20260510055005 | 43 | 203 | 0.0 | 0.0 | 0.00 | 0.11 | 0.00 | 87 | 1008.8 |
| 20260510054005 | 43 | 203 | 0.0 | 0.0 | 0.00 | 0.11 | 0.00 | 89 | 1009.0 |
| 20260510053005 | 43 | 203 | 0.0 | 0.0 | 0.00 | 0.11 | 0.00 | 88 | 1009.2 |
| 20260510052006 | 43 | 203 | 0.0 | 0.0 | 0.00 | 0.11 | 0.00 | 88 | 1009.2 |
| 20260510051006 | 43 | 203 | 0.0 | 0.0 | 0.00 | 0.11 | 0.00 | 88 | 1009.0 |
| 20260510050005 | 42 | 203 | 0.0 | 0.0 | 0.00 | 0.11 | 0.00 | 89 | 1009.0 |
| 20260510045005 | 42 | 103 | 0.0 | 0.0 | 0.00 | 0.11 | 0.00 | 91 | 1009.2 |
| 20260510044005 | 41 | 99 | 0.0 | 0.0 | 0.00 | 0.11 | 0.00 | 92 | 1009.3 |
| 20260510042005 | 41 | 99 | 0.0 | 0.0 | 0.00 | 0.11 | 0.00 | 91 | 1009.6 |
| 20260510035005 | 41 | 99 | 0.0 | 0.0 | 0.00 | 0.11 | 0.00 | 92 | 1009.6 |
| 20260510034005 | 40 | 99 | 0.0 | 0.0 | 0.00 | 0.11 | 0.00 | 91 | 1009.7 |
| 20260510033005 | 40 | 99 | 0.0 | 0.0 | 0.00 | 0.11 | 0.00 | 92 | 1009.8 |
| 20260510032006 | 40 | 99 | 0.0 | 0.0 | 0.00 | 0.11 | 0.00 | 92 | 1009.8 |
| 20260510031005 | 40 | 97 | 0.0 | 0.0 | 0.00 | 0.11 | 0.00 | 92 | 1009.9 |
| 20260510030005 | 40 | 194 | 0.0 | 0.0 | 0.00 | 0.11 | 0.00 | 92 | 1010.0 |
| 20260510025005 | 40 | 30 | 0.0 | 0.0 | 0.00 | 0.11 | 0.00 | 92 | 1010.1 |
| 20260510024005 | 39 | 344 | 0.0 | 0.0 | 0.00 | 0.11 | 0.00 | 92 | 1010.2 |
| 20260510023005 | 40 | 12 | 0.0 | 0.0 | 0.00 | 0.11 | 0.00 | 92 | 1010.3 |
| 20260510022005 | 39 | 348 | 0.0 | 0.0 | 0.00 | 0.11 | 0.00 | 92 | 1010.5 |
| 20260510021005 | 39 | 146 | 0.0 | 0.0 | 0.00 | 0.11 | 0.00 | 92 | 1010.7 |
| 20260510015006 | 39 | 148 | 0.0 | 0.0 | 0.00 | 0.11 | 0.00 | 92 | 1011.3 |
| 20260510014006 | 39 | 146 | 0.0 | 0.0 | 0.00 | 0.11 | 0.00 | 92 | 1011.5 |
| 20260510012005 | 40 | 145 | 0.0 | 0.0 | 0.00 | 0.11 | 0.00 | 91 | 1011.8 |
| 20260510011005 | 40 | 311 | 0.0 | 0.0 | 0.00 | 0.11 | 0.00 | 91 | 1011.9 |
| 20260510010005 | 40 | 307 | 0.0 | 0.0 | 0.00 | 0.11 | 0.00 | 91 | 1011.9 |
| 20260510005005 | 40 | 305 | 0.0 | 0.0 | 0.00 | 0.11 | 0.00 | 91 | 1012.1 |
| 20260510004005 | 40 | 304 | 0.0 | 0.0 | 0.00 | 0.11 | 0.00 | 91 | 1012.1 |
| 20260510003005 | 40 | 304 | 0.0 | 0.0 | 0.00 | 0.11 | 0.00 | 91 | 1012.3 |
| 20260510002005 | 40 | 302 | 0.0 | 0.0 | 0.00 | 0.11 | 0.00 | 91 | 1012.4 |
| 20260510001005 | 40 | 303 | 0.0 | 0.0 | 0.00 | 0.11 | 0.00 | 91 | 1012.5 |
| 20260510000005 | 40 | 303 | 0.0 | 0.0 | 0.00 | 0.11 | 0.00 | 91 | 1012.7 |
| 20260509235005 | 40 | 303 | 0.0 | 0.0 | 0.00 | 0.11 | 0.00 | 92 | 1012.7 |
| 20260509234005 | 40 | 303 | 0.0 | 0.0 | 0.00 | 0.11 | 0.00 | 91 | 1012.8 |
| 20260509233005 | 40 | 302 | 0.0 | 0.0 | 0.00 | 0.11 | 0.00 | 91 | 1013.1 |
| 20260509232005 | 40 | 302 | 0.0 | 0.0 | 0.00 | 0.11 | 0.00 | 91 | 1013.2 |
| 20260509231005 | 40 | 302 | 0.0 | 0.0 | 0.00 | 0.11 | 0.00 | 91 | 1013.1 |
| 20260509230005 | 40 | 300 | 0.0 | 0.0 | 0.00 | 0.11 | 0.00 | 91 | 1013.4 |